Volver al catálogo

CZ-6A DEB

ActivoPO
NORAD 54425·DEBRIS·🇨🇳 China

Lanzado Nov 11, 2022 desde Taiyuan Satellite Launch Center

Loading…

Próximos Pases (próximas 24 horas)

TLE

ActualizadoSource: Space-Track

Época: Sep 14, 2026, 06:27 UTC

1 54425U 22151EZ  26257.26875918  .00001297  00000-0  24775-3 0  9996
2 54425  98.8620  14.1544 0121114 306.5900  52.4204 14.61400907203719

Sigue CZ-6A DEB en tiempo real con AllMySat

Download on the App Store